Zurück zum Katalog

STARLINK-31451

AktivKommunikationVLEO
NORAD 59366·PAYLOAD·🇺🇸 United States

Gestartet Mar 31, 2024 von Cape Canaveral Space Force Station

Loading…

Nächste Überflüge (nächste 24 Stunden)

TLE

AktuellSource: CelesTrak SupGP

Epoche: Sep 14, 2026, 21:13 UTC

1 59366C 24060U   26257.88451389  .00020744  00000+0  75165-3 0  2579
2 59366  43.0027 271.0516 0001517 266.6057  20.1627 15.27555216    13

Verfolge STARLINK-31451 in Echtzeit mit AllMySat

Download on the App Store